Miscellaneous Local Product
Issued by NWS North Platte, NE

Home | Current Version | Previous Version | Graphics & Text | Print | Product List | Glossary On
Versions: 1 2 3 4 5 6 7 8 9 10 11 12 13 14 15 16 17 18 19 20 21 22 23 24 25 26 27 28 29 30 31 32 33 34 35 36 37 38 39 40 41 42 43 44 45 46 47 48 49 50
359
AXUS43 KLBF 230510
MISLBF


WESTERN AND NORTH CENTRAL NEBRASKA HOURLY WEATHER ROUNDUP
NATIONAL WEATHER SERVICE NORTH PLATTE NE
1100 PM CST WED FEB 22 2017

NOTE: "FAIR" INDICATES FEW OR NO CLOUDS BELOW 12,000 FEET WITH NO
SIGNIFICANT WEATHER AND/OR OBSTRUCTIONS TO VISIBILITY.

NOTE: STATIONS NOT REPORTING VARIABLES SUCH AS SKY/WEATHER OR
PRESSURE ARE PROVIDED BY RAWS AND APRS NETWORKS AND ARE NOT UNDER
NATIONAL WEATHER SERVICE QUALITY CONTROL.

...OBSERVATIONS IN AND NEAR THE EASTERN PANHANDLE OF NEBRASKA...

CITY           SKY/WX    TMP DP  RH WIND       PRES   REMARKS
PINE RIDGE     CLOUDY    34  30  85 NE12      29.90R WCI  25
CHADRON        CLOUDY    35  28  75 NE15      29.88F WCI  25
ALLIANCE       CLOUDY    37  30  75 NE15      29.80F WCI  28
SIDNEY         CLOUDY    41  19  41 N14       29.77F
CRESCENT LAKE    N/A     39  32  76 NE13G23     N/A  WCI  31
$$

...OBSERVATIONS IN NORTHERN NEBRASKA AND FAR SOUTHERN SOUTH DAKOTA...

CITY           SKY/WX    TMP DP  RH WIND       PRES   REMARKS
WINNER         LGT RAIN  36  34  92 N16       29.92R WCI  26
VALENTINE      CLOUDY    35  29  78 N10       29.89F WCI  27
THEDFORD       MOCLDY    38  35  87 NE13G18   29.83F WCI  30
AINSWORTH      CLOUDY    35  33  92 N14G20    29.88F WCI  26
O`NEILL        CLOUDY    41  39  93 N13G20    29.87S
ORD            PTCLDY    43  34  70 N14       29.80S
BROKEN BOW     CLEAR     43  32  65 N15G24    29.78F
VALENTINE NWR    N/A     35  32  89 NE9G17      N/A  WCI  28
BUTTE            N/A     35  32  90 N12G20      N/A  WCI  27
HALSEY           N/A     40  34  80 N9G16       N/A  WCI  34
CHAMBERS         N/A     41  36  83 N3          N/A
EWING            N/A     41  38  89 N6          N/A
$$

...OBSERVATIONS IN SOUTHWEST NEBRASKA AND FAR NORTHEAST COLORADO...

CITY           SKY/WX    TMP DP  RH WIND       PRES   REMARKS
HOLYOKE        FAIR      34  21  60 N8        29.74S WCI  27
IMPERIAL       CLEAR     39  21  48 NE9       29.72F WCI  33
OGALLALA       PTCLDY    44  32  64 NE23G29   29.76F
NORTH PLATTE   CLEAR     42  29  59 NE20G28   29.76F
MCCOOK         CLEAR     40  24  53 NE10      29.72F WCI  33
LEXINGTON      CLEAR     42  30  63 E8        29.76S
STAPLETON        N/A     39  33  80 NE3G12      N/A
GOTHENBURG       N/A     43  26  51 N7          N/A
CALLAWAY         N/A     41  32  69 NE14        N/A
$$

...OBSERVATIONS IN CENTRAL LINCOLN COUNTY AREA...

CITY           SKY/WX    TMP DP  RH WIND       PRES   REMARKS
N.P. AIRPORT   CLEAR     42  29  59 NE20G28   29.76F
N.P. DOWNTOWN    N/A     42  33  70 NE14G21     N/A
N.P. SOUTHEAST   N/A     42  31  64 NE8G18      N/A
N.P. HILLCREST   N/A     42  34  73 NE25G35     N/A
$$

...SOME OBSERVATIONS FROM AROUND THE REGION...

CITY           SKY/WX    TMP DP  RH WIND       PRES   REMARKS
LARAMIE        LGT SNOW  25  23  92 N5        29.72F VSB 1   WCI  19
CHEYENNE       CLOUDY    30  28  92 N7        29.76S WCI  23
DENVER         CLOUDY    32  18  56 NW9       29.77F WCI  24
AKRON          CLEAR     30  15  53 N10       29.73F WCI  21
SCOTTSBLUFF    LGT RAIN  39  32  76 NE17      29.81R WCI  30
RAPID CITY     CLOUDY    32  27  81 NE13      29.90F WCI  22
BISMARCK       CLOUDY    31  27  85 N3        30.00R
PIERRE         CLOUDY    32  27  81 NE15      29.94R WCI  22
SIOUX FALLS    CLOUDY    35  33  92 N10       29.88R WCI  27
OMAHA          CLEAR     43  36  76 N7        29.80R
GRAND ISLAND   CLEAR     40  32  73 NE9       29.78F WCI  34
KANSAS CITY    CLEAR     56  38  50 NE9       29.71R
WICHITA        PTCLDY    55  46  71 E5        29.67F
OKLAHOMA CITY  PTCLDY    57  43  59 SE7       29.68F
DALLAS         PTCLDY    65  49  56 SE5       29.70F
AMARILLO       CLOUDY    58  32  37 W7        29.76F
DODGE CITY     PTCLDY    50  32  50 SE8       29.66S
HAYS             N/A     49  28  44 NE14      29.67F
GOODLAND       CLOUDY    38  22  52 E10       29.68F WCI  31
$$




USA.gov is the U.S. government's official web portal to all federal, state and local government web resources and services.